Location: Kumla
(59.1265°N, 15.1401°E)
Time: 23:22:40
(UTC+01:00)

Vanguard 1 - Pass Details

Date: 07 December 2023
Orbit: 653 x 3825 km, 34.3° (Epoch: 04 March)

Event Time Altitude Azimuth Distance (km) Brightness Sun altitude
Rises 20:52:50 0° 254° (WSW) 6,599 14.8 -41.9°
Reaches altitude 10° 20:57:33 10° 245° (WSW) 5,975 14.3 -42.4°
Maximum altitude 21:13:19 31° 194° (SSW) 5,236 13.4 -44.1°
Enters shadow 21:14:58 30° 187° (S) 5,291 13.4 -44.3°
